This is the latest recevied weather packets stored in our database for station/object N0HEQ. If no packets are shown the sender has not sent any weather packets the latest 1 day(s).
| Time | Temp. | Humidity | Pressure | Rain* | Wind** | Luminosity | Snow |
|---|---|---|---|---|---|---|---|
| 1777989552 | 2.22° C | 97% | 1017.9 hPa | 0 mm | 0 m/s | 30 W/m² | - |
| 1777989249 | 2.22° C | 97% | 1017.7 hPa | 0 mm | 0.45 m/s, 62° | 20 W/m² | - |
| 1777988945 | 2.22° C | 97% | 1017.7 hPa | 0 mm | 0.45 m/s, 106° | 14 W/m² | - |
| 1777988641 | 2.22° C | 97% | 1017.5 hPa | 0 mm | 1.34 m/s, 38° | 16 W/m² | - |
| 1777988338 | 2.22° C | 97% | 1017.4 hPa | 0 mm | 0.89 m/s, 21° | 14 W/m² | - |
| 1777988035 | 2.22° C | 97% | 1017.4 hPa | 0 mm | 0 m/s | 14 W/m² | - |
| 1777987731 | 2.22° C | 97% | 1017.4 hPa | 0 mm | 0.89 m/s, 77° | 11 W/m² | - |
| 1777987428 | 2.22° C | 97% | 1017.2 hPa | 0 mm | 1.34 m/s, 41° | 11 W/m² | - |
| 1777987125 | 2.22° C | 97% | 1017.2 hPa | 0 mm | 0 m/s | 8 W/m² | - |
| 1777986823 | 2.22° C | 96% | 1016.9 hPa | 0 mm | 0.89 m/s, 44° | 5 W/m² | - |
| 1777986520 | 2.22° C | 96% | 1017.2 hPa | 0 mm | 1.34 m/s, 103° | 6 W/m² | - |
| 1777986218 | 2.22° C | 96% | 1017 hPa | 0 mm | 0.89 m/s, 110° | 6 W/m² | - |
| 1777985915 | 2.22° C | 96% | 1017.2 hPa | 0 mm | 0.89 m/s, 72° | 6 W/m² | - |
| 1777985613 | 2.22° C | 96% | 1016.8 hPa | 0 mm | 0.45 m/s, 157° | 5 W/m² | - |
| 1777985309 | 2.22° C | 96% | 1016.5 hPa | 0 mm | 0.89 m/s, 85° | 5 W/m² | - |
| 1777985006 | 2.22° C | 96% | 1016.5 hPa | 0 mm | 0.45 m/s, 289° | 4 W/m² | - |
| 1777984702 | 2.78° C | 96% | 1016.3 hPa | 0 mm | 1.34 m/s, 295° | 4 W/m² | - |
| 1777984399 | 2.78° C | 96% | 1016.2 hPa | 0 mm | 0.45 m/s, 359° | 4 W/m² | - |
| 1777984095 | 2.78° C | 96% | 1016.1 hPa | 0 mm | 1.34 m/s, 99° | 4 W/m² | - |
| 1777983792 | 2.78° C | 96% | 1016.6 hPa | 0 mm | 0.89 m/s, 89° | 3 W/m² | - |
| 1777983488 | 2.78° C | 96% | 1016.2 hPa | 0 mm | 0.89 m/s, 38° | 2 W/m² | - |
| 1777983186 | 2.78° C | 96% | 1016.1 hPa | 0 mm | 0.89 m/s, 161° | 1 W/m² | - |
| 1777982882 | 3.33° C | 96% | 1016 hPa | 0 mm | 1.79 m/s, 59° | 1 W/m² | - |
| 1777982578 | 3.33° C | 96% | 1015.9 hPa | 0 mm | 2.68 m/s, 69° | 0 W/m² | - |
| 1777982276 | 3.33° C | 96% | 1015.7 hPa | 0 mm | 0.89 m/s, 12° | 0 W/m² | - |
* Rain latest hour (hover to see other rain measurements)
** Current wind speed in m/s (hover to see current wind gust speed)